Other Public Products
Issued by NWS Charleston, SC

Home | Current Version | Previous Version | Text Only | Print | Product List | Glossary On
Versions: 1 2 3 4 5 6 7 8 9 10 11 12 13 14 15 16 17 18 19 20 21 22 23 24 25 26 27 28 29 30 31 32 33 34 35 36 37 38 39 40 41 42 43 44 45 46 47 48 49 50
000
FPUS82 KCHS 230527
OPUCHS

TEST...KCHS/KSAV Gateway Observations...TEST
National Weather Service Charleston SC
1200 AM EST THU NOV 23 2017

NOTE: "fair" indicates few or no clouds below 12,000 feet with no
significant weather and/or obstructions to visibility.

SCZ050-WAZ558-NCZ071-TXZ119-213-PAZ071-DCZ001-FLZ074-172-MI076-
NYZ176-178-MAZ016-IL014-TNZ027-NJZ106-GAZ044-MD014-230600-

...Gateway Observations for Charleston International...

CITY           SKY/WX    TMP DP  RH WIND       PRES   REMARKS
Chas Airport   CLOUDY    54  46  74 NE7       30.09R
Seattle        LGT RAIN  61  57  87 S12       29.86R
Charlotte      CLOUDY    45  27  49 N8        30.15S
Dallas DFW     CLEAR     47  22  37 CALM      30.24F
Dallas Love    PTCLDY    41  32  70 CALM      30.26F
Philladelphia  CLEAR     36  22  56 N7        30.15S WCI  30
Wash National  PTCLDY    38  24  57 NW7       30.19F WCI  33
Baltimore      PTCLDY    32  24  72 SW5       30.18S WCI  27
Miami          PTCLDY    76  69  79 SE5       29.95S
Detroit        CLOUDY    27  19  72 S3        30.20F
Newark         PTCLDY    35  20  54 NW12      30.11R WCI  27
Laguardia      CLEAR     37  21  52 NW14G25   30.09R WCI  28
J F K          PTCLDY    35  21  56 NW16      30.10R WCI  25
Boston Logan   PTCLDY    38  24  57 NW18G25   29.94R WCI  28
Ft. Lauderdale LGT RAIN  75  72  90 SE13      29.93F
Chicago O`Hare CLOUDY    32  18  56 SW8       30.18S WCI  25
Chicago Midway CLOUDY    32  19  58 SW9       30.20S WCI  24
Houston Bush   CLEAR     51  38  60 NW7       30.25S
Houston Hobby  CLEAR     54  40  59 N10       30.24S
Nashville      CLEAR     35  24  64 N3        30.25S
Atlanta        CLOUDY    44  32  62 NW9       30.09S

$$

GAZ044-118-TXZ119-213-NCZ071-DCZ001-MDZ014-506-PAZ021-071-NJZ106-
NYZ176-178-MAZ106-OHZ011-021-055-MIZ076-KYZ091-ILZ014-INZ047-
MNZ060-ONZ431-230600-

...Gateway Observations for Savannah International...

CITY           SKY/WX    TMP DP  RH WIND       PRES   REMARKS
Savannah Arpt  CLOUDY    58  57  97 NE6       30.06F
Atlanta        CLOUDY    44  32  62 NW9       30.09S
Charlotte      CLOUDY    45  27  49 N8        30.15S
Dallas DFW     CLEAR     47  22  37 CALM      30.24F
Houston Bush   CLEAR     51  38  60 NW7       30.25S
Wash National  PTCLDY    38  24  57 NW7       30.19F WCI  33
Wash Dulles    PTCLDY    34  23  64 NW9       30.18F WCI  27
Baltimore      PTCLDY    32  24  72 SW5       30.18S WCI  27
Philadelphia   CLEAR     36  22  56 N7        30.15S WCI  30
Newark         PTCLDY    35  20  54 NW12      30.11R WCI  27
Laguardia      CLEAR     37  21  52 NW14G25   30.09R WCI  28
J F K          PTCLDY    35  21  56 NW16      30.10R WCI  25
Boston         PTCLDY    38  24  57 NW18G25   29.94R WCI  28
Pittsburg      CLOUDY    29  22  75 W5        30.20F WCI  24
Akron          CLOUDY    29  17  61 SW3       30.21F
Cleveland      CLOUDY    30  19  63 SW8       30.25S WCI  22
Cincinnati     CLOUDY    30  24  78 E3        30.23S
Columbus       CLOUDY    25  21  84 CALM      30.24F
Detroit        CLOUDY    27  19  72 S3        30.20F
Chicago O`Hare CLOUDY    32  18  56 SW8       30.18S WCI  25
Minneapolis    CLOUDY    32  18  56 S8        29.96F WCI  25
Indianapolis   CLOUDY    31  23  72 CALM      30.23F
Toronto Canada MOCLDY    30  19  64 W13       30.16F WCI  20

$$




USA.gov is the U.S. government's official web portal to all federal, state and local government web resources and services.